Location: Penzberg
(47.7615°N, 11.3159°E)
Time: 13:29:50
(UTC+01:00)

ISS - Pass Details

Date: 10 January 2018
Orbit: 402 x 407 km, 51.6° (Epoch: 21 January)

Event Time Altitude Azimuth Distance (km) Brightness Sun altitude
Exits shadow 06:31:06 32° 298° (WNW) 732 -3.1 -14.6°
Maximum altitude 06:32:30 82° 22° (NNE) 415 -3.9 -14.4°
Drops below altitude 10° 06:35:48 10° 111° (ESE) 1,466 0.5 -13.9°
Sets 06:37:53 0° 112° (ESE) 2,324 2.0 -13.5°
